Weather History for Mount Carmel, IL

Change the Weather History Date:

Friday, July 12, 2013

  Actual Average (KLWV) Record (KLWV)
Temperature  
Mean Temperature 75 °F 78 °F  
Max Temperature 86 °F 89 °F 98 °F (2011)
Min Temperature 64 °F 68 °F 57 °F (1997)
Degree Days  
Heating Degree Days 0 0  
Month to date heating degree days 0  
Since 1 June heating degree days 7  
Since 1 July heating degree days 0  
Cooling Degree Days 10 13  
Month to date cooling degree days 156  
Year to date cooling degree days 585  
Since 1 June cooling degree days 446  
Growing Degree Days 25 (Base 50)    
Moisture  
Dew Point 58 °F    
Average Humidity 60    
Maximum Humidity 88    
Minimum Humidity 35    
Precipitation  
Precipitation 0.00 in 0.15 in 1.49 in (1990)
Month to date precipitation 1.64  
Year to date precipitation 23.18  
Sea Level Pressure  
Sea Level Pressure 30.07 in    
Wind  
Wind Speed 6 mph (NNE)    
Max Wind Speed 12 mph    
Max Gust Speed 16 mph    
Visibility 10 miles    
Events      
T = Trace of Precipitation, MM = Missing Value Source: NWS Daily Summary

Daily Weather History Graph

Daily Weather History Graph

Search for Another Location

Airport:

Trip Planner

Search our weather history database for the weather conditions in past years. The results will help you decide how hot, cold, wet, or windy it might be!

Date:

Astronomy

Jul. 12, 2013 Rise Set
Actual Time 5:36 AM CDT 8:16 PM CDT
Civil Twilight 5:05 AM CDT 8:47 PM CDT
Nautical Twilight 4:26 AM CDT 9:25 PM CDT
Astronomical Twilight 3:43 AM CDT 10:09 PM CDT
Moon 9:49 AM CDT (7/12) 10:30 PM CDT (7/12)
Length of Visible Light 15h 41m
Length of Day
14h 39m
Waxing Crescent, 17% of the Moon is Illuminated
Jul 12
Waxing Crescent
Jul 15
First Quarter
Jul 22
Full
Jul 29
Last Quarter
Aug 6
New

Hourly Weather History & Observations

Time (CDT) Temp. Heat Index Dew Point Humidity Pressure Visibility Wind Dir Wind Speed Gust Speed Precip Events Conditions
12:15 AM 68.0 °F - 60.8 °F 78% 30.06 in 10.0 mi NNE 4.6 mph - N/A   Clear
12:35 AM 68.0 °F - 60.8 °F 78% 30.05 in 10.0 mi NNE 3.5 mph - N/A   Clear
12:55 AM 68.0 °F - 60.8 °F 78% 30.05 in 10.0 mi NNE 3.5 mph - N/A   Clear
1:15 AM 66.2 °F - 60.8 °F 83% 30.06 in 10.0 mi NNE 5.8 mph - N/A   Clear
1:35 AM 64.4 °F - 60.8 °F 88% 30.06 in 10.0 mi North 3.5 mph - N/A   Clear
1:55 AM 64.4 °F - 60.8 °F 88% 30.06 in 10.0 mi NNE 3.5 mph - N/A   Clear
2:15 AM 66.2 °F - 59.0 °F 78% 30.06 in 10.0 mi NNE 4.6 mph - N/A   Clear
2:35 AM 66.2 °F - 59.0 °F 78% 30.06 in 10.0 mi NNE 5.8 mph - N/A   Clear
2:55 AM 66.2 °F - 59.0 °F 78% 30.06 in 10.0 mi NNE 5.8 mph - N/A   Clear
3:15 AM 66.2 °F - 59.0 °F 78% 30.06 in 10.0 mi NNE 6.9 mph - N/A   Clear
3:35 AM 66.2 °F - 59.0 °F 78% 30.06 in 10.0 mi NNE 8.1 mph - N/A   Clear
3:55 AM 64.4 °F - 59.0 °F 83% 30.06 in 10.0 mi NNE 8.1 mph - N/A   Clear
4:15 AM 64.4 °F - 59.0 °F 83% 30.07 in 10.0 mi NNE 6.9 mph - N/A   Clear
4:35 AM 64.4 °F - 59.0 °F 83% 30.07 in 10.0 mi NNE 5.8 mph - N/A   Clear
4:55 AM 64.4 °F - 59.0 °F 83% 30.08 in 10.0 mi NNE 6.9 mph - N/A   Clear
5:15 AM 64.4 °F - 59.0 °F 83% 30.09 in 10.0 mi NNE 4.6 mph - N/A   Clear
5:35 AM 64.4 °F - 59.0 °F 83% 30.10 in 10.0 mi NNE 3.5 mph - N/A   Clear
5:55 AM 64.4 °F - 59.0 °F 83% 30.10 in 10.0 mi NNE 3.5 mph - N/A   Clear
6:15 AM 64.4 °F - 59.0 °F 83% 30.09 in 10.0 mi NE 4.6 mph - N/A   Clear
6:35 AM 64.4 °F - 59.0 °F 83% 30.10 in 10.0 mi NE 5.8 mph - N/A   Clear
6:55 AM 66.2 °F - 59.0 °F 78% 30.10 in 10.0 mi NNE 6.9 mph - N/A   Clear
7:15 AM 68.0 °F - 59.0 °F 73% 30.11 in 10.0 mi NE 4.6 mph - N/A   Clear
7:35 AM 68.0 °F - 59.0 °F 73% 30.11 in 10.0 mi NE 5.8 mph - N/A   Clear
7:55 AM 69.8 °F - 59.0 °F 68% 30.11 in 10.0 mi NE 6.9 mph - N/A   Clear
8:15 AM 69.8 °F - 59.0 °F 68% 30.12 in 10.0 mi NE 9.2 mph - N/A   Clear
8:35 AM 71.6 °F - 59.0 °F 64% 30.12 in 10.0 mi NE 8.1 mph - N/A   Clear
8:55 AM 71.6 °F - 60.8 °F 69% 30.12 in 10.0 mi ENE 6.9 mph - N/A   Clear
9:15 AM 73.4 °F - 60.8 °F 65% 30.12 in 10.0 mi NNE 5.8 mph - N/A   Clear
9:35 AM 75.2 °F - 60.8 °F 61% 30.11 in 10.0 mi NE 5.8 mph - N/A   Clear
9:55 AM 77.0 °F - 60.8 °F 57% 30.11 in 10.0 mi NE 5.8 mph - N/A   Clear
10:15 AM 78.8 °F - 59.0 °F 51% 30.10 in 10.0 mi ENE 10.4 mph - N/A   Clear
10:35 AM 78.8 °F - 57.2 °F 47% 30.11 in 10.0 mi ENE 9.2 mph - N/A   Clear
10:55 AM 78.8 °F - 55.4 °F 44% 30.10 in 7.0 mi NE 11.5 mph 16.1 mph N/A   Clear
11:15 AM 80.6 °F 80.5 °F 55.4 °F 42% 30.10 in 10.0 mi ENE 11.5 mph 16.1 mph N/A   Clear
11:35 AM 80.6 °F 80.3 °F 53.6 °F 39% 30.10 in 10.0 mi ENE 10.4 mph - N/A   Clear
11:55 AM 80.6 °F 80.5 °F 55.4 °F 42% 30.09 in 10.0 mi ENE 9.2 mph - N/A   Clear
12:15 PM 82.4 °F 81.4 °F 53.6 °F 37% 30.10 in 10.0 mi ENE 10.4 mph 16.1 mph N/A   Clear
12:35 PM 80.6 °F 80.3 °F 53.6 °F 39% 30.09 in 10.0 mi North 10.4 mph - N/A   Scattered Clouds
12:55 PM 82.4 °F 81.4 °F 53.6 °F 37% 30.09 in 10.0 mi NE 11.5 mph - N/A   Clear
1:15 PM 82.4 °F 81.4 °F 53.6 °F 37% 30.09 in 10.0 mi ENE 8.1 mph - N/A   Clear
1:35 PM 82.4 °F 81.7 °F 55.4 °F 39% 30.08 in 10.0 mi NE 9.2 mph - N/A   Scattered Clouds
1:55 PM 82.4 °F 81.7 °F 55.4 °F 39% 30.08 in 10.0 mi NNE 6.9 mph - N/A   Clear
2:15 PM 82.4 °F 81.7 °F 55.4 °F 39% 30.07 in 10.0 mi North 8.1 mph - N/A   Clear
2:35 PM 84.2 °F 83.0 °F 55.4 °F 37% 30.07 in 10.0 mi NNE 10.4 mph - N/A   Clear
2:55 PM 84.2 °F 82.8 °F 53.6 °F 35% 30.07 in 10.0 mi North 5.8 mph - N/A   Clear
3:15 PM 84.2 °F 83.0 °F 55.4 °F 37% 30.07 in 10.0 mi NNE 5.8 mph - N/A   Clear
3:35 PM 84.2 °F 83.0 °F 55.4 °F 37% 30.06 in 10.0 mi NNE 6.9 mph - N/A   Clear
3:55 PM 84.2 °F 83.0 °F 55.4 °F 37% 30.06 in 10.0 mi NNE 6.9 mph - N/A   Clear
4:15 PM 84.2 °F 83.0 °F 55.4 °F 37% 30.05 in 10.0 mi ENE 4.6 mph - N/A   Scattered Clouds
4:35 PM 86.0 °F 84.5 °F 55.4 °F 35% 30.04 in 10.0 mi North 9.2 mph - N/A   Clear
4:55 PM 84.2 °F 83.5 °F 57.2 °F 40% 30.05 in 10.0 mi NE 8.1 mph - N/A   Scattered Clouds
5:15 PM 84.2 °F 83.0 °F 55.4 °F 37% 30.05 in 10.0 mi North 9.2 mph - N/A   Scattered Clouds
5:35 PM 84.2 °F 83.0 °F 55.4 °F 37% 30.04 in 10.0 mi NNE 5.8 mph - N/A   Clear
5:55 PM 84.2 °F 83.0 °F 55.4 °F 37% 30.04 in 10.0 mi NNE 6.9 mph - N/A   Clear
6:15 PM 82.4 °F 82.0 °F 57.2 °F 42% 30.03 in 10.0 mi NNE 6.9 mph - N/A   Clear
6:35 PM 82.4 °F 81.7 °F 55.4 °F 39% 30.04 in 10.0 mi North 8.1 mph - N/A   Clear
6:55 PM 82.4 °F 81.7 °F 55.4 °F 39% 30.04 in 10.0 mi North 5.8 mph - N/A   Clear
7:15 PM 80.6 °F 80.8 °F 57.2 °F 45% 30.04 in 10.0 mi NNE 5.8 mph - N/A   Clear
7:35 PM 80.6 °F 80.8 °F 57.2 °F 45% 30.04 in 10.0 mi NNE 5.8 mph - N/A   Clear
7:55 PM 78.8 °F - 57.2 °F 47% 30.04 in 10.0 mi NNE 6.9 mph - N/A   Clear
8:15 PM 77.0 °F - 59.0 °F 54% 30.04 in 10.0 mi NE 4.6 mph - N/A   Clear
8:35 PM 73.4 °F - 60.8 °F 65% 30.04 in 10.0 mi NE 3.5 mph - N/A   Clear
8:55 PM 73.4 °F - 60.8 °F 65% 30.05 in 10.0 mi NNE 3.5 mph - N/A   Clear
9:15 PM 73.4 °F - 60.8 °F 65% 30.05 in 10.0 mi NNE 3.5 mph - N/A   Clear
9:35 PM 71.6 °F - 60.8 °F 69% 30.06 in 10.0 mi NNE 4.6 mph - N/A   Clear
9:55 PM 71.6 °F - 60.8 °F 69% 30.06 in 10.0 mi NNE 4.6 mph - N/A   Clear
10:15 PM 71.6 °F - 60.8 °F 69% 30.07 in 10.0 mi ENE 4.6 mph - N/A   Scattered Clouds
10:35 PM 69.8 °F - 60.8 °F 73% 30.07 in 10.0 mi NE 3.5 mph - N/A   Clear
10:55 PM 69.8 °F - 60.8 °F 73% 30.07 in 10.0 mi NE 4.6 mph - N/A   Clear
11:15 PM 69.8 °F - 60.8 °F 73% 30.07 in 10.0 mi NE 4.6 mph - N/A   Clear
11:35 PM 69.8 °F - 60.8 °F 73% 30.07 in 10.0 mi NNE 5.8 mph - N/A   Clear
11:55 PM 69.8 °F - 60.8 °F 73% 30.07 in 10.0 mi NNE 4.6 mph - N/A   Clear